Location: Newark
(25.4800°N, 85.7200°E)
Time: 04:58:25
(UTC+00:00)

Explorer 11/Cluster Stage 4 - Pass Details

Date: 26 August 2019
Orbit: 467 x 1260 km, 28.8° (Epoch: 15 September)

Event Time Altitude Azimuth Distance (km) Brightness Sun altitude
Rises 05:42:44 0° 276° (W) 4,087 10.1 72.7°
Reaches altitude 10° 05:45:34 10° 279° (W) 3,177 9.7 73.0°
Maximum altitude 05:53:44 70° 2° (N) 1,322 8.8 73.9°
Drops below altitude 10° 06:01:46 10° 86° (E) 3,130 9.8 74.5°
Sets 06:04:33 0° 88° (E) 4,024 10.3 74.6°
